{"data":{"norad_id":50816,"intl_designator":"2022-001P","name":"STARLINK-3342","alt_names":[],"object_type":"PAYLOAD","status":"ACTIVE","operator":null,"country":"US","launch_date":"2022-01-06","launch_site_code":"AFETR","launch_vehicle":null,"mission":null,"orbit_class":"UNKNOWN","rcs_meters":null,"size_class":null,"mass_kg":null,"dimensions":null,"purposes":["comms"],"wikipedia_slug":null,"has_3d_model":false,"image_url":null,"decayed_at":null,"tle_current":{"epoch":"2026-09-19T23:29:57.894720Z","epoch_age_seconds":93308,"freshness":"FRESH","line1":"1 50816U 22001P   26262.97914230  .00005633  00000+0  26510-3 0  9991","line2":"2 50816  53.2164   3.7054 0001943  85.7491 274.3729 15.21008823259924","mean_motion":15.21008823,"eccentricity":0.0001943,"inclination_deg":53.2164,"raan_deg":3.7054,"arg_perigee_deg":85.7491,"mean_anomaly_deg":274.3729,"bstar":0.0002651,"rev_number":25992,"period_min":94.674007029083,"perigee_km":501.45940443625,"apogee_km":504.13333514375,"semimajor_km":6880.93336979,"source":"CELESTRAK","updated_at":"2026-09-20T09:00:39.577064Z"}}}